When you browse on this site, cookies collect data to enhance your experience and personalize the content and advertising you see.
Visit our Privacy Policy to learn more. By continuing to use the site, you agree to this use of cookies and data.
  • en Suisse
  • Liste des pays
  • À 7 jours
  • Température de l'eau
  • Carte météo
  • Widgets météo
  • user-avatar
    Se connecter

    Météo par heure à Albany

    Ce jour, 3 Juin, Mercredi

    Heure Température Précipitation Vent Pression Humidité
    00:00 +12°C° 0 mm 3 m/s 765 mmHg 79%
    01:00 +12°C° 0 mm 3 m/s 765 mmHg 78%
    02:00 +12°C° 0 mm 3 m/s 765 mmHg 75%
    03:00 +12°C° 0 mm 3 m/s 765 mmHg 74%
    04:00 +12°C° 0 mm 3 m/s 765 mmHg 74%
    05:00 +13°C° 0 mm 2 m/s 764 mmHg 73%
    06:00 +12°C° 0 mm 3 m/s 764 mmHg 72%
    07:00 +12°C° 0 mm 3 m/s 765 mmHg 72%
    08:00 +12°C° 0 mm 4 m/s 765 mmHg 71%
    09:00 +14°C° 0 mm 3 m/s 764 mmHg 65%
    10:00 +18°C° 0 mm 3 m/s 764 mmHg 59%
    11:00 +20°C° 0 mm 3 m/s 764 mmHg 53%
    12:00 +20°C° 0 mm 3 m/s 763 mmHg 52%
    13:00 +21°C° 0 mm 3 m/s 763 mmHg 51%
    14:00 +23°C° 0 mm 2 m/s 762 mmHg 50%
    15:00 +20°C° 0 mm 2 m/s 762 mmHg 55%
    16:00 +20°C° 0 mm 1 m/s 763 mmHg 61%
    17:00 +18°C° 0 mm 1 m/s 763 mmHg 67%
    18:00 +18°C° 0 mm 1 m/s 763 mmHg 67%
    19:00 +16°C° 0 mm 2 m/s 763 mmHg 68%
    20:00 +15°C° 0 mm 2 m/s 763 mmHg 69%
    21:00 +14°C° 0 mm 2 m/s 763 mmHg 70%
    22:00 +14°C° 0 mm 2 m/s 763 mmHg 71%
    23:00 +14°C° 0 mm 2 m/s 763 mmHg 72%

    Demain, 4 Juin, Jeudi

    Heure Température Précipitation Vent Pression Humidité
    00:00 +13°C° 0 mm 2 m/s 763 mmHg 73%
    01:00 +13°C° 0 mm 2 m/s 763 mmHg 74%
    02:00 +13°C° 0 mm 2 m/s 763 mmHg 75%
    03:00 +12°C° 0 mm 2 m/s 763 mmHg 75%
    04:00 +12°C° 0 mm 2 m/s 763 mmHg 75%
    05:00 +12°C° 0 mm 2 m/s 763 mmHg 75%
    06:00 +12°C° 0 mm 2 m/s 763 mmHg 76%
    07:00 +12°C° 0 mm 2 m/s 763 mmHg 76%
    08:00 +13°C° 0 mm 1 m/s 764 mmHg 76%
    09:00 +15°C° 0 mm 1 m/s 764 mmHg 72%
    10:00 +18°C° 0 mm 1 m/s 764 mmHg 67%
    11:00 +20°C° 0 mm 1 m/s 764 mmHg 63%
    12:00 +19°C° 0 mm 2 m/s 764 mmHg 64%
    13:00 +19°C° 0 mm 2 m/s 763 mmHg 66%
    14:00 +20°C° 0 mm 3 m/s 763 mmHg 67%
    15:00 +18°C° 0 mm 3 m/s 763 mmHg 73%
    16:00 +17°C° 0 mm 3 m/s 764 mmHg 79%
    17:00 +16°C° 0 mm 3 m/s 764 mmHg 86%
    18:00 +16°C° 0 mm 3 m/s 765 mmHg 87%
    19:00 +14°C° 0 mm 3 m/s 765 mmHg 89%
    20:00 +14°C° 0 mm 3 m/s 765 mmHg 90%
    21:00 +14°C° 0 mm 3 m/s 765 mmHg 89%
    22:00 +16°C° 0 mm 3 m/s 766 mmHg 87%
    23:00 +16°C° 0 mm 3 m/s 766 mmHg 85%

    Après-demain, 5 Juin, Vendredi

    Heure Température Précipitation Vent Pression Humidité
    00:00 +16°C° 0 mm 3 m/s 766 mmHg 85%
    01:00 +16°C° 0 mm 3 m/s 766 mmHg 85%
    02:00 +16°C° 0 mm 3 m/s 766 mmHg 84%
    03:00 +16°C° 0 mm 3 m/s 766 mmHg 84%
    04:00 +16°C° 0 mm 3 m/s 766 mmHg 84%
    05:00 +16°C° 0 mm 3 m/s 766 mmHg 84%
    06:00 +16°C° 0 mm 3 m/s 766 mmHg 84%
    07:00 +16°C° 0 mm 3 m/s 766 mmHg 84%
    08:00 +16°C° 0 mm 3 m/s 766 mmHg 84%
    09:00 +17°C° 0 mm 3 m/s 766 mmHg 81%
    10:00 +17°C° 0 mm 3 m/s 766 mmHg 78%
    11:00 +18°C° 0 mm 3 m/s 766 mmHg 76%
    12:00 +18°C° 0 mm 3 m/s 766 mmHg 75%
    13:00 +18°C° 0 mm 3 m/s 765 mmHg 74%
    14:00 +18°C° 0 mm 3 m/s 765 mmHg 73%
    15:00 +18°C° 0 mm 3 m/s 765 mmHg 75%
    16:00 +18°C° 0 mm 3 m/s 765 mmHg 76%
    17:00 +17°C° 0 mm 2 m/s 765 mmHg 77%
    18:00 +17°C° 0 mm 3 m/s 765 mmHg 81%
    19:00 +16°C° 0 mm 3 m/s 765 mmHg 84%
    20:00 +14°C° 0 mm 3 m/s 765 mmHg 88%
    21:00 +15°C° 0 mm 2 m/s 765 mmHg 89%
    22:00 +15°C° 0 mm 2 m/s 765 mmHg 90%
    23:00 +14°C° 0 mm 2 m/s 765 mmHg 92%

    6 Juin, Samedi

    Heure Température Précipitation Vent Pression Humidité
    00:00 +14°C° 0 mm 2 m/s 765 mmHg 92%
    01:00 +14°C° 0 mm 2 m/s 764 mmHg 93%
    02:00 +13°C° 0 mm 3 m/s 764 mmHg 93%
    03:00 +14°C° 0 mm 2 m/s 764 mmHg 93%
    04:00 +14°C° 0 mm 2 m/s 763 mmHg 93%
    05:00 +14°C° 0 mm 2 m/s 763 mmHg 93%
    06:00 +14°C° 0.1 mm 2 m/s 763 mmHg 92%
    07:00 +15°C° 0.1 mm 2 m/s 763 mmHg 92%
    08:00 +15°C° 0.1 mm 2 m/s 763 mmHg 91%
    09:00 +16°C° 0 mm 2 m/s 763 mmHg 85%
    10:00 +18°C° 0 mm 2 m/s 763 mmHg 79%
    11:00 +19°C° 0 mm 2 m/s 762 mmHg 73%
    12:00 +21°C° 0 mm 1 m/s 762 mmHg 68%
    13:00 +21°C° 0 mm 1 m/s 761 mmHg 64%
    14:00 +22°C° 0 mm 1 m/s 760 mmHg 59%
    15:00 +21°C° 0 mm 1 m/s 760 mmHg 63%
    16:00 +20°C° 0 mm 1 m/s 760 mmHg 67%
    17:00 +17°C° 0 mm 0 m/s 760 mmHg 71%
    18:00 +18°C° 0 mm 1 m/s 760 mmHg 71%
    19:00 +16°C° 0 mm 1 m/s 761 mmHg 72%
    20:00 +16°C° 0 mm 1 m/s 761 mmHg 73%
    21:00 +15°C° 0 mm 1 m/s 761 mmHg 74%
    22:00 +15°C° 0 mm 1 m/s 761 mmHg 74%
    23:00 +15°C° 0 mm 2 m/s 761 mmHg 75%

    7 Juin, Dimanche

    Heure Température Précipitation Vent Pression Humidité
    00:00 +14°C° 0 mm 2 m/s 761 mmHg 76%
    01:00 +14°C° 0 mm 2 m/s 760 mmHg 77%
    02:00 +14°C° 0 mm 2 m/s 760 mmHg 78%
    03:00 +14°C° 0 mm 2 m/s 760 mmHg 78%
    04:00 +14°C° 0 mm 2 m/s 760 mmHg 78%
    05:00 +13°C° 0 mm 2 m/s 760 mmHg 78%
    06:00 +14°C° 0 mm 2 m/s 760 mmHg 77%
    07:00 +14°C° 0 mm 2 m/s 761 mmHg 76%
    08:00 +14°C° 0 mm 1 m/s 761 mmHg 75%
    09:00 +16°C° 0 mm 2 m/s 761 mmHg 71%
    10:00 +18°C° 0 mm 2 m/s 761 mmHg 66%
    11:00 +19°C° 0 mm 2 m/s 761 mmHg 62%
    12:00 +20°C° 0 mm 2 m/s 761 mmHg 60%
    13:00 +22°C° 0 mm 1 m/s 761 mmHg 59%
    14:00 +23°C° 0 mm 1 m/s 760 mmHg 57%
    15:00 +21°C° 0.1 mm 1 m/s 761 mmHg 64%
    16:00 +19°C° 0.1 mm 2 m/s 761 mmHg 70%
    17:00 +17°C° 0.1 mm 2 m/s 761 mmHg 77%
    18:00 +17°C° 0 mm 2 m/s 761 mmHg 79%
    19:00 +16°C° 0 mm 2 m/s 762 mmHg 80%
    20:00 +15°C° 0 mm 2 m/s 762 mmHg 82%
    21:00 +15°C° 0 mm 2 m/s 762 mmHg 81%
    22:00 +14°C° 0 mm 2 m/s 762 mmHg 79%
    23:00 +14°C° 0 mm 2 m/s 762 mmHg 78%

    8 Juin, Lundi

    Heure Température Précipitation Vent Pression Humidité
    00:00 +14°C° 0 mm 2 m/s 762 mmHg 78%
    01:00 +14°C° 0 mm 2 m/s 762 mmHg 77%
    02:00 +13°C° 0 mm 2 m/s 762 mmHg 77%
    03:00 +13°C° 0 mm 2 m/s 762 mmHg 78%
    04:00 +13°C° 0 mm 2 m/s 762 mmHg 78%
    05:00 +13°C° 0 mm 2 m/s 762 mmHg 78%
    06:00 +12°C° 0 mm 3 m/s 762 mmHg 77%
    07:00 +12°C° 0 mm 3 m/s 762 mmHg 75%
    08:00 +12°C° 0 mm 3 m/s 762 mmHg 74%
    09:00 +14°C° 0 mm 3 m/s 762 mmHg 67%
    10:00 +17°C° 0 mm 4 m/s 762 mmHg 60%
    11:00 +20°C° 0 mm 4 m/s 762 mmHg 52%
    12:00 +20°C° 0 mm 4 m/s 762 mmHg 50%
    13:00 +21°C° 0 mm 4 m/s 761 mmHg 47%
    14:00 +22°C° 0 mm 3 m/s 761 mmHg 45%
    15:00 +20°C° 0 mm 3 m/s 761 mmHg 51%
    16:00 +19°C° 0 mm 2 m/s 761 mmHg 58%
    17:00 +17°C° 0 mm 2 m/s 761 mmHg 65%
    18:00 +16°C° 0 mm 2 m/s 761 mmHg 68%
    19:00 +16°C° 0 mm 1 m/s 761 mmHg 72%
    20:00 +15°C° 0 mm 1 m/s 762 mmHg 75%
    21:00 +14°C° 0 mm 1 m/s 761 mmHg 74%
    22:00 +14°C° 0 mm 2 m/s 761 mmHg 73%
    23:00 +14°C° 0 mm 2 m/s 761 mmHg 71%
    Voir plus